GW7396 Weather Reports


time (UTC)temp
F
wind
direction
speed
knots
gust
knots
rain 1hr
in
rain 24hr
in
rain mn
in
humidity
%
barometer
mb
20260506230024 82 65 0.9 5.2 0.00 0.01 0.01 23 1015.7
20260506224528 82 60 0.0 8.7 0.00 0.01 0.01 23 1015.8
20260506223027 81 40 0.9 7.8 0.00 0.01 0.01 22 1016.0
20260506221517 81 51 1.7 4.3 0.00 0.01 0.01 26 1016.0
20260506220031 81 339 0.0 4.3 0.00 0.01 0.01 27 1016.3
20260506214524 80 63 0.0 3.5 0.00 0.01 0.01 25 1016.6
20260506213028 79 73 1.7 5.2 0.00 0.01 0.01 26 1016.7
20260506211513 79 57 0.9 5.2 0.00 0.01 0.01 28 1016.7
20260506210022 78 52 0.0 4.3 0.00 0.01 0.01 29 1016.8
20260506204522 78 56 0.0 5.2 0.00 0.01 0.01 31 1016.9
20260506203023 78 64 0.9 4.3 0.00 0.01 0.01 29 1017.1
20260506201523 78 29 0.0 4.3 0.00 0.01 0.01 32 1017.2
20260506200022 77 82 0.0 5.2 0.00 0.01 0.01 29 1017.2
20260506194519 76 14 1.7 6.1 0.00 0.01 0.01 31 1017.3
20260506193024 75 248 0.0 5.2 0.00 0.01 0.01 35 1017.5
20260506191507 74 53 0.0 1.7 0.00 0.01 0.01 32 1017.6
20260506190022 74 302 0.9 4.3 0.00 0.01 0.01 33 1017.7
20260506184518 73 58 0.0 2.6 0.00 0.01 0.01 35 1017.7
20260506183005 72 227 0.9 5.2 0.00 0.02 0.01 33 1017.8
20260506181503 71 86 0.0 4.3 0.00 0.02 0.01 37 1017.9
20260506180012 70 56 0.0 3.5 0.00 0.02 0.01 40 1018.0
20260506174515 69 258 0.0 2.6 0.00 0.02 0.01 40 1017.9
20260506173022 68 193 0.0 1.7 0.00 0.02 0.01 44 1018.1